Location: Westfield
(45.3617°N, 66.2417°W)
Time: 08:32:20
(UTC-04:00)

Tiangong 1 - Visible Passes

Search period start: 19 November 2017 00:00
Search period end: 29 November 2017 00:00
Orbit: 285 x 309 km, 42.8° (Epoch: 19 November)

Date Brightness Start Highest point End Pass type
(mag) Time Alt. Az. Time Alt. Az. Time Alt. Az.
25 Nov 3.5 18:51:27 10° SSW 18:52:01 14° SSW 18:52:01 14° SSW visible
26 Nov 3.5 18:57:30 10° SW 18:58:12 16° SW 18:58:12 16° SW visible
27 Nov 2.9 17:30:01 10° SSW 17:31:42 16° SSE 17:33:22 10° ESE visible
27 Nov 3.7 19:03:35 10° WSW 19:04:14 15° WSW 19:04:14 15° WSW visible
28 Nov 2.3 17:35:34 10° SW 17:37:44 24° SSE 17:39:47 11° ESE visible
28 Nov 4.0 19:09:42 10° WSW 19:10:09 14° WSW 19:10:09 14° WSW visible
